Location: Unspecified
(0.0000°N, 0.0000°E)
Time: 07:22:42
(UTC+00:00)

Hubble Space Telescope - Pass Details

Date: 16 September 2017
Orbit: 538 x 541 km, 28.5° (Epoch: 22 September)

Event Time Altitude Azimuth Distance (km) Brightness Sun altitude
Rises 20:10:46 0° 302° (WNW) 2,669 5.1 -34.0°
Reaches altitude 10° 20:13:02 10° 303° (WNW) 1,781 4.0 -34.6°
Enters shadow 20:13:20 12° 303° (WNW) 1,659 3.8 -34.6°
